TimeEST,TemperatureF,Dew PointF,Humidity,Sea Level PressureIn,VisibilityMPH,Wind Direction,Wind SpeedMPH,Gust SpeedMPH,PrecipitationIn,Events,Conditions,WindDirDegrees,DateUTC
12:35 AM,33.8,32.0,93,29.79,2.5,WSW,12.7,-,N/A,,Unknown,240,2011-11-30 05:35:00
12:55 AM,33.8,30.2,87,29.78,2.0,SW,11.5,17.3,N/A,,Unknown,230,2011-11-30 05:55:00
1:35 AM,33.8,32.0,93,29.79,5.0,WSW,10.4,18.4,N/A,,Unknown,240,2011-11-30 06:35:00
1:55 AM,33.8,30.2,87,29.80,7.0,WSW,12.7,18.4,N/A,,Unknown,250,2011-11-30 06:55:00
2:15 AM,33.8,30.2,87,29.81,7.0,WSW,9.2,-,N/A,,Unknown,240,2011-11-30 07:15:00
2:55 AM,33.8,30.2,87,29.83,4.0,West,11.5,23.0,N/A,,Unknown,270,2011-11-30 07:55:00
3:15 AM,33.8,30.2,87,29.83,10.0,West,13.8,19.6,N/A,,Unknown,260,2011-11-30 08:15:00
3:35 AM,33.8,30.2,87,29.84,4.0,WSW,10.4,17.3,N/A,,Unknown,250,2011-11-30 08:35:00
3:55 AM,33.8,30.2,87,29.85,4.0,West,10.4,16.1,N/A,,Unknown,260,2011-11-30 08:55:00
4:15 AM,33.8,30.2,87,29.86,1.8,West,8.1,-,N/A,,Unknown,270,2011-11-30 09:15:00
4:35 AM,32.0,30.2,93,29.87,2.0,West,10.4,-,N/A,,Unknown,260,2011-11-30 09:35:00
4:55 AM,32.0,30.2,93,29.87,4.0,West,9.2,18.4,N/A,,Unknown,270,2011-11-30 09:55:00
5:15 AM,33.8,28.4,81,29.88,10.0,West,10.4,18.4,N/A,,Unknown,260,2011-11-30 10:15:00
5:35 AM,33.8,28.4,81,29.88,10.0,WSW,11.5,-,N/A,,Unknown,250,2011-11-30 10:35:00
5:55 AM,33.8,28.4,81,29.88,10.0,WSW,11.5,18.4,N/A,,Unknown,240,2011-11-30 10:55:00
6:15 AM,33.8,28.4,81,29.89,10.0,WSW,12.7,18.4,N/A,,Unknown,250,2011-11-30 11:15:00
6:35 AM,33.8,28.4,81,29.90,10.0,West,11.5,17.3,N/A,,Unknown,270,2011-11-30 11:35:00
6:55 AM,33.8,28.4,81,29.90,10.0,West,15.0,21.9,N/A,,Unknown,260,2011-11-30 11:55:00
7:15 AM,33.8,28.4,81,29.91,10.0,West,10.4,-,N/A,,Unknown,270,2011-11-30 12:15:00
7:35 AM,33.8,28.4,81,29.92,10.0,West,12.7,19.6,N/A,,Unknown,270,2011-11-30 12:35:00
7:55 AM,33.8,30.2,87,29.93,10.0,West,6.9,-,N/A,,Unknown,280,2011-11-30 12:55:00
8:15 AM,33.8,30.2,87,29.94,10.0,West,8.1,-,N/A,,Unknown,280,2011-11-30 13:15:00
8:35 AM,33.8,28.4,81,29.95,10.0,WNW,10.4,19.6,N/A,,Unknown,300,2011-11-30 13:35:00
8:55 AM,33.8,30.2,87,29.95,10.0,West,11.5,20.7,N/A,,Unknown,280,2011-11-30 13:55:00
9:15 AM,33.8,30.2,87,29.96,7.0,West,8.1,-,N/A,,Unknown,260,2011-11-30 14:15:00
9:35 AM,35.6,30.2,81,29.97,7.0,WNW,4.6,-,N/A,,Unknown,290,2011-11-30 14:35:00
9:55 AM,35.6,30.2,81,29.98,7.0,West,5.8,-,N/A,,Unknown,280,2011-11-30 14:55:00
10:15 AM,35.6,30.2,81,29.99,2.0,West,8.1,-,N/A,,Unknown,280,2011-11-30 15:15:00
10:35 AM,33.8,32.0,93,30.00,2.0,WNW,10.4,17.3,N/A,,Unknown,290,2011-11-30 15:35:00
11:15 AM,33.8,32.0,93,30.00,1.5,WNW,9.2,-,N/A,,Unknown,300,2011-11-30 16:15:00
11:55 AM,33.8,32.0,93,30.01,1.2,WNW,8.1,-,N/A,,Unknown,290,2011-11-30 16:55:00
12:15 PM,33.8,30.2,87,30.02,0.8,West,11.5,-,N/A,,Unknown,280,2011-11-30 17:15:00
12:35 PM,33.8,30.2,87,30.02,10.0,NW,8.1,-,N/A,,Unknown,310,2011-11-30 17:35:00
1:15 PM,33.8,28.4,81,30.03,10.0,NW,5.8,-,N/A,,Unknown,320,2011-11-30 18:15:00
1:35 PM,33.8,28.4,81,30.03,10.0,NW,5.8,-,N/A,,Unknown,320,2011-11-30 18:35:00
1:55 PM,35.6,28.4,75,30.03,10.0,WNW,6.9,-,N/A,,Unknown,290,2011-11-30 18:55:00
2:15 PM,35.6,28.4,75,30.03,10.0,West,9.2,-,N/A,,Unknown,280,2011-11-30 19:15:00
2:35 PM,35.6,28.4,75,30.03,10.0,West,9.2,-,N/A,,Unknown,280,2011-11-30 19:35:00
2:55 PM,35.6,26.6,70,30.03,10.0,West,8.1,-,N/A,,Unknown,280,2011-11-30 19:55:00
3:15 PM,35.6,26.6,70,30.04,10.0,West,6.9,-,N/A,,Unknown,270,2011-11-30 20:15:00
3:35 PM,35.6,26.6,70,30.05,10.0,West,5.8,-,N/A,,Unknown,270,2011-11-30 20:35:00
3:55 PM,37.4,26.6,65,30.05,10.0,WSW,5.8,-,N/A,,Unknown,240,2011-11-30 20:55:00
4:15 PM,35.6,26.6,70,30.06,10.0,SW,4.6,-,N/A,,Unknown,230,2011-11-30 21:15:00
4:35 PM,35.6,26.6,70,30.06,10.0,West,4.6,-,N/A,,Unknown,260,2011-11-30 21:35:00
4:55 PM,33.8,26.6,75,30.07,10.0,NW,3.5,-,N/A,,Unknown,310,2011-11-30 21:55:00
5:15 PM,33.8,26.6,75,30.08,10.0,NNW,3.5,-,N/A,,Unknown,330,2011-11-30 22:15:00
5:35 PM,32.0,26.6,80,30.08,10.0,NNW,3.5,-,N/A,,Unknown,330,2011-11-30 22:35:00
5:55 PM,32.0,26.6,80,30.09,10.0,Calm,Calm,-,N/A,,Unknown,0,2011-11-30 22:55:00
6:15 PM,32.0,26.6,80,30.10,10.0,Calm,Calm,-,N/A,,Unknown,0,2011-11-30 23:15:00
6:35 PM,30.2,26.6,86,30.10,10.0,Calm,Calm,-,N/A,,Unknown,0,2011-11-30 23:35:00
6:55 PM,30.2,26.6,86,30.11,10.0,Calm,Calm,-,N/A,,Unknown,0,2011-11-30 23:55:00
7:15 PM,28.4,24.8,86,30.12,10.0,Calm,Calm,-,N/A,,Unknown,0,2011-12-01 00:15:00
7:35 PM,30.2,26.6,86,30.13,10.0,West,3.5,-,N/A,,Unknown,280,2011-12-01 00:35:00
7:55 PM,30.2,26.6,86,30.14,10.0,NW,3.5,-,N/A,,Unknown,320,2011-12-01 00:55:00
8:15 PM,30.2,24.8,80,30.15,10.0,NNW,3.5,-,N/A,,Unknown,330,2011-12-01 01:15:00
8:35 PM,30.2,24.8,80,30.15,10.0,NNW,4.6,-,N/A,,Unknown,330,2011-12-01 01:35:00
8:55 PM,28.4,24.8,86,30.16,10.0,Calm,Calm,-,N/A,,Unknown,0,2011-12-01 01:55:00
9:15 PM,28.4,24.8,86,30.16,10.0,NNW,3.5,-,N/A,,Unknown,340,2011-12-01 02:15:00
9:35 PM,28.4,24.8,86,30.16,10.0,Calm,Calm,-,N/A,,Unknown,0,2011-12-01 02:35:00
10:15 PM,26.6,23.0,86,30.16,10.0,Calm,Calm,-,N/A,,Unknown,0,2011-12-01 03:15:00
10:35 PM,26.6,26.6,100,30.17,10.0,Calm,Calm,-,N/A,,Unknown,0,2011-12-01 03:35:00
10:55 PM,26.6,26.6,100,30.18,10.0,Calm,Calm,-,N/A,,Unknown,0,2011-12-01 03:55:00
11:15 PM,26.6,24.8,93,30.18,10.0,Calm,Calm,-,N/A,,Unknown,0,2011-12-01 04:15:00
11:35 PM,28.4,26.6,93,30.18,10.0,Calm,Calm,-,N/A,,Unknown,0,2011-12-01 04:35:00
11:55 PM,26.6,26.6,100,30.19,10.0,Calm,Calm,-,N/A,,Unknown,0,2011-12-01 04:55:00